Presure
204 199 206 293 290 313 276 254 240 233 222 227 216 212 208 200 222 258 260 256 256 254 254 240 232 219 222 279 270 270 258 252 249 249 250 247 246 249 249 247 244 246 247 264 269 272 238 220 224 221 228 230 233 234
194 215 267 261 295 270 242 242 231 221 223 216 207 202 202 224 265 265 262 259 257 258 249 247 240 233 226 226 221 213 280 270 265 256 251 252 254 254 256 247 265 267 274 240 225 226 230 232 233 238 240 242 246 256
223 286 260 290 266 245 241 228 225 225 215 203 212 273 275 273 273 276 272 263 262 263 259 253 249 243 237 237 234 229 227 223 221 221 219 219 280 293 253 227 229 229 230 230 232 235 240 241 246 256 268 270 265 271
268 278 283 264 247 233 228 225 218 208 213 259 291 287 284 281 279 277 272 267 265 262 263 262 257 254 251 250 246 241 236 235 234 232 229 229 231 232 234 237 239 240 241 244 250 259 265 264 269 274 277 286 294 302
307 283 259 246 232 228 219 214 213 275 297 294 287 283 280 273 268 264 265 269 269 269 260 262 266 269 265 261 259 259 257 256 254 252 251 251 253 255 259 266 268 269 267 270 273 274 277 286 291 298 309 319 383 404
282 251 247 232 233 209 217 232 304 303 301 300 303 303 302 294 287 285 280 272 266 263 260 259 260 257 258 269 271 270 268 267 268 268 266 266 266 262 266 268 272 281 285 300 302 306 315 333 402 392 383 374 367 361
248 238 232 223 218 217 304 298 295 313 398 393 392 384 378 374 385 386 340 305 290 280 274 276 278 281 279 277 271 265 265 264 266 267 269 279 286 291 307 308 313 327 343 397 390 385 374 364 359 359 359 355 349 349
236 229 217 221 284 303 301 308 345 298 380 381 401 384 384 368 379 378 366 359 349 359 361 325 322 338 315 309 309 322 322 321 322 322 323 357 372 408 395 389 379 374 370 365 363 361 364 357 376 395 397 396 394 391
217 223 295 312 303 304 297 301 311 301 371 379 381 386 387 383 382 373 367 358 352 345 344 342 340 430 334 362 442 428 420 255 406 398 393 385 376 384 402 403 407 405 405 406 396 387 390 390 387 389 387 386 387 390
316 313 309 303 299 297 318 374 365 375 365 362 355 348 349 344 464 445 458 439 438 424 436 418 420 407 405 386 251 229 454 412 429 431 420 418 410 405 395 398 395 391 386 387 393 402 481 468 464 459 453 444 433 421
319 321 316 334 384 374 418 407 401 395 381 389 412 429 420 408 395 410 402 375 419 453 488 454 397 279 465 424 443 443 422 423 424 421 419 421 422 423 418 417 407 400 397 455 458 451 446 442 439 434 426 418 408 403
395 393 428 414 402 403 386 382 430 429 421 363 404 381 326 432 442 438 427 410 396 355 371 345 351 361 358 284 255 356 367 243 450 457 465 469 442 409 392 416 460 457 437 416 441 481 525 527 526 527 531 533 534 534
450 420 391 385 432 406 370 418 396 355 286 407 308 409 403 366 355 352 300 360 358 303 295 292 314 251 260 285 338 348 267 378 470 418 389 385 387 396 437 445 419 408 482 513 528 525 522 526 531 534 536 532 531 536
387 443 406 367 362 347 307 334 290 278 253 246 306 331 276 332 317 312 302 305 271 306 305 316 242 295 215 219 325 334 339 342 426 422 403 399 387 377 422 433 411 498 526 469 492 495 496 501 501 499 494 499 498 497
384 353 351 312 302 291 279 287 266 241 276 281 287 306 312 288 255 225 250 307 293 270 293 268 216 253 312 325 326 325 229 321 327 330 344 411 402 384 375 441 423 521 466 435 424 418 416 417 417 417 417 417 417 416
324 324 289 244 259 328 264 253 239 259 295 266 336 313 302 298 240 247 285 249 264 223 273 276 234 256 308 309 309 310 310 314 313 313 313 320 357 407 389 375 424 424 531 453 432 421 414 408 402 399 399 396 393 391
274 251 262 278 241 309 204 255 250 270 306 310 301 289 283 279 234 271 270 269 269 269 267 268 279 279 283 285 284 290 294 296 297 300 306 309 310 318 341 398 384 375 424 413 464 440 423 410 399 391 386 385 388 391
276 262 241 227 250 221 225 262 261 275 293 280 276 270 269 203 265 262 259 259 262 264 266 269 274 276 279 278 277 273 276 277 281 288 293 299 304 308 307 316 390 392 378 373 415 405 453 440 426 412 398 387 382 382
262 235 229 255 254 246 231 266 261 272 272 265 261 260 257 253 254 257 259 260 261 260 258 262 264 268 269 269 266 267 268 268 270 275 276 283 290 298 301 304 310 317 368 388 378 370 416 413 440 443 428 415 393 383
307 305 270 248 260 240 260 259 256 265 268 263 262 258 255 257 253 250 250 252 255 257 262 264 266 264 261 260 261 260 262 262 263 266 269 275 281 286 293 300 300 305 310 318 392 380 374 386 415 410 424 449 429 407
241 243 270 260 251 250 259 262 266 249 249 257 257 250 247 251 253 251 249 249 248 253 257 258 258 259 260 261 260 263 266 262 258 257 261 267 275 280 286 289 295 300 300 306 307 321 391 379 382 398 416 409 422 446
209 221 241 173 228 255 251 261 252 246 248 249 254 252 247 247 247 247 246 243 243 247 252 255 256 255 264 261 256 252 255 260 266 263 261 264 268 271 278 286 289 292 298 299 302 304 312 373 385 374 391 409 417 409
253 253 245 226 238 248 239 248 245 244 247 245 244 242 241 241 244 245 247 252 254 256 256 253 255 255 259 259 259 262 263 256 257 262 257 259 265 271 274 279 281 292 290 297 297 298 302 306 319 388 378 372 402 417
228 208 240 243 244 241 244 242 247 252 249 245 242 241 242 255 256 256 258 261 260 257 258 260 262 255 253 261 264 251 252 256 262 266 265 263 261 261 269 277 278 281 294 293 294 298 294 301 302 310 335 384 373 383
206 245 247 242 239 241 246 251 249 249 247 249 250 253 253 250 252 254 255 254 261 264 260 259 264 265 267 264 262 263 267 266 262 263 261 260 260 262 271 277 275 281 282 290 295 291 301 292 300 299 305 320 384 378
240 238 233 233 235 248 250 244 245 252 251 249 248 241 235 230 235 241 241 237 234 238 248 248 258 257 246 243 248 262 268 264 264 267 273 271 268 261 262 268 273 281 280 290 292 297 292 300 291 296 301 303 315 348
233 232 232 237 241 238 242 249 242 234 228 227 237 246 233 228 224 231 239 238 236 233 230 237 238 245 247 249 256 256 260 265 264 265 267 269 268 274 275 268 270 277 280 285 294 298 298 292 301 293 296 301 303 310
231 238 237 235 244 241 235 236 237 236 226 222 227 228 233 237 230 225 235 242 240 223 226 236 232 227 233 232 235 239 246 258 265 265 272 275 267 271 277 278 282 281 282 282 295 292 299 299 293 303 292 294 301 306
236 236 238 233 235 231 224 221 222 224 227 239 230 229 225 240 230 224 232 238 231 237 241 238 244 250 250 242 231 239 240 240 251 258 267 271 276 275 277 280 289 286 289 287 296 299 285 305 295 298 305 295 293 299
233 229 231 230 226 225 225 227 227 227 226 223 222 223 223 224 225 224 223 229 231 232 227 222 225 235 236 241 241 234 237 241 242 259 259 264 273 279 278 286 283 293 292 290 297 299 296 302 302 297 298 303 296 290
222 216 229 235 237 225 225 229 222 218 218 214 215 214 220 225 230 234 236 227 216 218 230 234 236 231 230 234 239 244 236 238 242 239 248 281 281 280 291 281 295 296 295 301 304 300 301 301 303 302 295 300 301 298
227 222 220 214 222 220 216 215 224 226 220 219 222 221 215 218 228 223 213 214 219 224 227 227 227 229 238 238 235 239 248 243 250 248 241 248 291 283 287 292 302 297 296 309 305 309 307 306 302 305 302 297 301 301
217 215 214 213 218 220 221 220 219 215 213 224 222 226 222 220 220 223 224 224 228 225 217 230 236 238 244 243 237 228 240 251 240 252 253 259 288 306 297 294 305 305 308 316 312 310 315 310 311 310 310 304 300 302
Wind_Speed
105 100 114 101 91 56 57 59 65 67 75 73 76 77 75 70 77 71 64 63 60 57 52 51 50 54 57 77 80 86 85 85 87 90 93 94 95 99 101 100 99 103 106 115 117 119 99 85 87 88 91 93 95 98
92 122 102 99 58 57 65 65 68 75 77 78 77 76 78 81 71 68 66 63 63 60 54 55 55 56 57 57 60 62 88 92 96 97 96 99 103 105 107 101 111 110 113 95 89 93 96 97 101 104 104 106 109 110
130 94 98 60 61 67 66 72 75 77 78 76 84 76 73 71 70 66 63 64 63 63 60 57 56 58 61 63 65 67 67 68 70 72 74 77 96 99 92 86 88 90 93 96 99 104 106 109 113 114 114 113 112 115
97 81 64 64 68 73 76 77 77 78 84 80 73 71 70 69 67 65 64 63 63 63 64 62 62 62 63 65 67 70 72 75 77 79 81 84 87 89 92 95 97 99 101 104 107 109 108 111 115 117 117 120 120 122
64 64 66 71 75 79 78 80 83 78 73 71 70 68 67 66 66 65 64 63 64 64 65 66 67 68 68 68 70 72 75 77 79 82 84 88 91 93 96 98 99 102 104 106 109 112 114 117 120 124 125 128 97 84
65 69 71 78 80 76 81 82 74 72 70 70 69 68 67 66 66 65 65 63 63 64 65 67 68 68 69 72 74 76 77 79 81 83 85 88 90 91 95 99 103 108 111 115 116 117 121 122 82 86 88 89 91 92
70 76 81 81 81 83 76 73 70 66 58 57 56 56 56 57 56 58 63 65 65 65 66 67 69 71 71 73 73 74 75 78 80 83 86 91 95 98 102 106 109 110 106 77 82 83 86 90 91 92 93 93 94 93
78 81 81 85 80 74 71 67 59 62 51 49 45 47 46 47 46 47 49 50 53 55 57 63 67 70 71 74 77 82 84 86 88 91 93 83 77 60 65 69 74 78 81 84 87 89 90 90 84 77 79 80 79 79
78 85 78 71 69 65 63 61 57 56 43 39 37 34 33 33 34 36 38 40 43 45 47 50 53 28 60 55 28 33 37 50 47 51 54 59 64 62 57 58 58 62 64 64 67 71 74 77 77 77 77 78 78 77
75 70 67 64 61 59 55 41 40 35 34 32 32 32 32 32 14 15 13 12 12 11 12 13 15 19 22 30 42 48 24 32 31 34 36 40 44 46 51 54 57 60 63 65 65 64 55 57 59 59 60 62 64 64
68 64 61 53 38 37 23 23 20 19 21 18 16 16 15 15 15 17 18 15 18 16 29 23 21 28 31 23 29 28 27 27 27 30 32 35 36 38 41 44 48 52 55 52 53 55 56 57 57 56 57 57 58 57
35 32 18 17 17 14 16 15 24 24 29 20 25 25 20 24 25 27 33 32 35 23 34 21 24 34 37 30 39 35 28 46 31 30 31 32 33 34 36 41 45 46 47 50 53 53 49 47 46 44 42 40 37 36
10 9 11 11 27 26 19 36 32 27 25 33 25 25 41 44 40 33 24 42 41 20 21 21 35 21 25 37 42 50 27 38 42 41 40 40 39 42 44 43 43 47 49 47 45 43 43 42 40 39 36 34 33 32
7 31 27 19 15 8 15 7 17 14 21 25 37 36 33 41 38 37 37 36 20 43 43 45 18 32 35 33 45 54 61 65 59 53 52 50 49 50 53 50 50 47 44 43 41 40 39 38 37 37 36 34 33 32
27 15 17 12 13 9 13 9 10 19 45 36 26 27 38 30 28 25 29 54 47 36 51 35 22 37 50 58 62 64 41 67 72 73 77 61 60 59 58 55 55 48 45 44 43 43 42 41 40 39 37 35 35 34
11 7 9 13 15 42 5 10 16 33 21 17 42 44 46 50 21 26 50 35 41 25 51 46 31 36 60 64 69 72 73 77 78 79 80 81 76 64 64 64 62 60 45 46 45 45 44 43 42 41 39 38 37 36
14 6 12 27 15 66 15 29 45 22 22 35 44 46 50 50 25 49 50 49 49 49 45 44 49 56 57 66 67 75 79 82 84 84 83 82 81 84 85 69 69 68 63 60 47 46 46 45 44 43 43 42 40 40
20 11 8 9 28 19 16 42 22 15 30 37 43 47 48 23 50 50 50 51 53 54 53 54 58 63 67 69 73 76 80 81 83 84 85 86 87 86 86 87 76 73 72 70 64 61 47 44 43 44 43 43 43 43
27 7 9 27 40 41 31 29 28 27 36 41 44 47 48 48 50 52 53 55 56 56 54 56 61 66 70 74 75 77 78 78 81 82 84 87 89 90 90 91 91 90 82 74 72 70 61 58 50 45 44 42 41 43
70 73 44 29 58 46 28 31 28 33 41 44 47 48 49 50 49 49 51 54 58 56 58 61 66 69 72 73 75 77 79 80 82 84 85 87 88 88 90 90 90 90 90 91 76 74 72 69 62 57 51 44 44 43
30 40 63 59 51 36 29 33 36 37 39 44 48 49 48 51 53 54 56 56 56 56 61 67 70 72 73 75 76 78 79 79 78 79 82 85 87 89 90 90 91 90 89 89 88 90 74 73 70 66 60 57 53 46
29 38 44 25 29 35 33 38 39 41 43 46 50 54 54 55 56 56 57 55 56 60 64 67 70 72 78 77 76 75 77 78 81 81 82 84 86 87 89 89 89 89 89 88 88 87 89 82 76 75 71 66 61 59
56 56 59 47 41 36 34 38 39 42 46 48 50 51 51 52 53 56 58 59 61 64 67 70 74 76 77 77 78 79 80 78 79 80 79 82 87 88 89 90 90 91 89 89 87 87 87 88 92 80 78 76 71 65
46 27 50 42 37 36 37 37 42 47 48 47 47 49 51 58 60 61 62 65 68 72 76 78 79 78 79 80 79 76 78 81 82 83 83 83 84 88 91 91 90 91 91 87 87 87 85 87 87 90 91 79 78 74
13 52 46 42 40 40 41 45 47 48 49 51 55 59 62 65 66 66 68 70 75 77 77 78 82 83 83 83 83 84 83 82 82 83 84 86 87 89 91 90 90 91 90 88 85 84 85 83 86 85 85 89 81 78
54 51 46 43 41 44 46 47 48 52 56 58 60 61 60 57 57 63 65 65 66 69 76 77 81 82 79 78 86 87 85 86 87 86 84 83 84 86 89 91 91 89 87 86 84 82 82 83 80 83 84 85 88 88
52 49 45 44 45 46 47 50 53 56 57 59 61 60 57 56 57 62 65 66 68 70 72 77 78 84 85 87 92 93 94 91 92 91 90 88 88 87 86 87 87 89 87 86 83 82 80 78 81 77 79 81 82 83
50 49 47 46 49 50 51 56 58 57 55 54 56 56 60 62 63 63 68 72 73 69 74 78 78 80 85 86 89 92 98 102 99 98 94 90 92 92 88 86 84 84 83 84 83 81 80 77 75 78 75 77 79 81
51 50 52 51 52 53 51 52 53 53 54 57 56 59 60 67 64 64 70 75 75 79 81 80 84 87 88 86 85 91 95 98 105 104 99 94 91 88 88 88 85 84 82 82 81 77 77 74 74 74 75 72 74 77
55 54 52 52 53 53 52 51 54 56 57 57 59 62 64 64 66 67 69 75 77 79 79 78 82 87 88 89 89 88 92 94 98 104 101 102 94 88 91 86 86 82 81 80 79 77 76 75 73 73 74 75 73 73
52 51 54 53 53 53 54 56 56 56 56 57 60 62 63 66 71 73 74 74 73 76 81 83 85 86 87 90 91 92 90 92 93 93 101 98 93 90 83 86 84 80 79 79 75 74 72 71 70 68 69 70 70 69
56 56 56 55 56 55 55 55 56 57 60 62 64 65 65 69 73 73 70 73 76 78 81 83 84 87 88 89 89 92 94 93 95 97 93 98 95 92 89 85 81 79 79 76 74 71 69 67 66 65 64 65 66 66
56 55 55 55 56 57 57 56 56 57 59 64 64 66 68 69 70 72 74 76 78 79 78 84 86 88 89 90 88 88 95 96 93 98 99 102 99 83 85 85 81 79 77 74 70 69 66 65 64 63 61 60 62 62
Wind_Direction
308 307 311 306 307 300 299 299 297 297 302 298 301 303 305 307 306 307 306 306 304 302 301 295 291 289 284 261 265 265 268 270 273 275 277 279 280 280 281 283 285 286 286 287 287 287 285 282 284 283 284 285 286 286
303 309 308 305 300 299 297 295 293 298 297 299 305 305 306 305 302 301 301 301 299 297 297 294 292 288 286 286 285 285 269 268 269 271 274 276 277 280 281 283 282 281 281 284 286 287 288 289 289 288 288 288 287 286
305 302 302 299 297 295 294 295 297 298 301 305 303 299 297 296 296 295 294 294 294 292 290 289 286 284 285 285 284 284 284 284 285 285 286 287 275 274 281 288 288 288 289 289 289 289 289 288 286 285 286 287 286 286
302 300 298 296 294 295 295 298 302 307 304 299 294 293 292 292 291 291 290 290 289 289 287 287 285 284 282 280 280 281 282 283 283 284 285 286 286 286 286 285 286 287 287 285 284 283 284 284 286 286 287 287 288 289
297 297 295 292 294 295 300 304 305 299 295 293 293 292 290 290 289 290 289 288 286 284 286 286 285 283 282 281 280 280 279 279 279 280 280 280 281 281 281 282 283 284 283 284 285 285 286 285 286 288 289 289 287 287
295 294 291 292 292 302 303 303 299 298 297 295 293 291 288 288 287 286 285 285 285 285 285 285 285 285 285 282 281 282 282 282 282 282 283 284 284 284 285 285 285 284 284 285 286 287 287 287 286 286 287 288 288 288
292 292 293 298 302 303 301 301 300 298 293 291 289 286 284 281 280 277 276 278 279 281 283 283 282 281 282 283 283 284 285 285 284 284 284 284 284 284 285 285 285 285 285 287 287 287 287 287 287 287 288 288 288 289
293 295 300 301 300 300 300 299 298 298 298 297 295 294 291 288 287 283 281 279 277 275 273 276 276 275 279 280 280 280 281 281 282 283 283 284 286 290 289 288 286 286 287 287 287 288 287 287 289 289 290 290 290 291
300 300 300 300 300 300 299 299 300 301 302 304 302 300 298 296 293 288 286 284 283 282 281 281 280 293 281 283 299 297 294 298 291 291 290 289 289 289 291 291 293 294 295 295 294 294 294 294 294 293 292 291 291 290
301 301 300 301 301 301 302 303 305 309 308 307 306 305 304 302 43 29 44 21 27 359 5 332 330 314 312 300 300 301 330 303 314 314 310 307 304 304 301 301 301 300 300 298 297 295 303 300 298 296 294 292 290 290
302 302 303 303 306 307 321 321 327 329 328 342 13 43 45 34 21 42 36 340 34 46 64 58 16 324 35 24 18 8 355 343 331 325 319 316 313 312 312 313 311 310 308 315 314 312 309 307 305 302 299 298 296 295
304 306 325 330 329 342 337 350 70 69 61 28 54 44 358 58 66 71 73 74 79 55 70 45 43 47 38 324 310 357 343 304 8 360 358 356 354 345 334 330 332 331 326 321 320 323 328 329 327 326 326 327 326 322
47 12 345 357 92 87 63 72 58 39 349 52 12 78 84 72 74 79 38 73 69 39 14 353 43 322 346 360 42 40 349 19 26 25 21 14 7 2 356 352 347 342 336 337 339 340 341 340 339 340 344 345 344 343
34 103 102 79 65 67 20 65 360 350 343 338 44 74 12 79 73 69 58 59 25 54 52 53 343 35 312 333 44 44 43 41 34 31 26 22 18 14 9 4 1 352 350 358 357 358 359 359 360 2 2 1 1 359
91 80 74 53 22 34 23 65 358 340 27 16 22 50 75 61 33 354 27 65 59 51 56 43 338 27 49 48 46 44 12 39 38 36 34 25 23 21 18 13 11 2 7 7 7 7 7 6 7 8 7 5 3 360
75 57 53 338 352 79 360 337 351 29 69 44 81 76 73 72 29 42 63 42 48 17 52 49 22 34 47 46 45 43 42 40 39 37 34 32 29 23 23 22 18 18 7 12 11 10 9 10 8 6 6 5 3 360
62 10 50 68 10 74 353 53 43 51 78 76 73 70 67 64 32 59 58 55 53 51 47 43 42 42 43 43 42 42 41 40 38 36 34 33 31 31 31 25 24 24 22 21 14 13 11 9 9 8 6 4 4 4
86 81 22 359 51 36 17 76 69 55 73 67 67 65 64 8 59 56 53 51 50 48 45 43 42 42 42 42 41 38 36 35 35 35 34 32 31 31 30 30 27 26 25 25 23 22 14 12 11 9 9 8 7 6
94 39 35 74 73 68 57 82 73 66 67 66 63 61 60 57 55 54 53 51 49 47 43 41 40 40 40 39 37 36 35 34 33 32 31 31 30 30 29 29 29 30 28 26 26 26 23 22 19 15 13 11 11 11
95 95 89 91 83 66 79 76 72 69 68 67 66 63 60 58 56 52 50 48 47 44 42 41 41 40 39 38 37 35 34 32 30 30 29 29 28 29 30 29 28 28 28 29 27 26 24 25 23 22 20 16 16 14
97 85 89 87 83 80 74 75 73 66 63 65 63 60 55 52 50 47 46 44 43 41 40 39 38 37 37 36 36 34 33 31 30 30 29 27 27 27 28 28 28 28 27 28 28 29 27 27 27 27 25 24 22 17
72 77 86 22 75 84 77 76 71 65 63 59 58 56 52 50 48 47 45 42 38 37 36 37 36 35 34 33 33 32 31 30 28 27 27 26 26 25 26 26 27 27 26 26 27 27 27 28 28 28 27 27 25 25
85 82 79 73 76 75 69 70 68 65 63 60 57 56 53 50 47 45 42 40 39 39 38 36 34 34 33 31 30 28 27 27 26 26 26 25 23 23 23 24 25 25 25 25 25 25 26 26 28 28 27 27 27 27
79 62 80 82 82 76 73 69 66 64 62 60 56 54 51 48 46 44 43 41 39 37 36 34 34 33 32 29 28 28 27 25 23 22 21 22 23 22 20 21 22 23 23 23 24 24 24 25 26 27 28 28 28 28
54 85 87 83 76 71 67 67 65 62 60 56 52 50 49 48 46 45 44 43 41 41 40 38 35 33 31 31 29 27 25 24 23 22 21 19 19 20 19 20 20 20 21 21 22 22 23 24 25 25 26 28 29 28
87 85 82 77 74 70 68 66 63 59 57 55 55 54 52 46 44 45 43 41 38 38 39 38 37 37 34 31 31 28 25 24 23 21 20 20 19 18 18 18 17 18 19 20 20 21 22 23 23 24 25 25 27 29
85 82 79 76 73 69 67 65 62 59 55 52 52 53 49 45 41 41 41 39 38 36 33 33 33 33 32 32 32 29 26 24 24 24 21 19 19 17 17 16 15 16 16 17 19 20 21 22 22 23 24 25 26 28
80 80 77 73 71 68 64 60 58 57 54 50 48 45 43 42 40 37 36 36 37 32 31 32 30 27 26 26 26 25 25 24 22 20 18 17 17 16 15 14 14 15 15 15 17 18 19 20 21 22 23 24 25 26
80 76 73 70 67 64 59 55 51 49 47 49 46 43 41 42 39 36 35 35 31 30 30 28 28 29 30 28 23 24 24 23 22 20 17 14 14 13 11 10 12 13 13 15 15 17 17 18 19 21 22 23 25 26
77 73 70 67 62 59 57 54 52 50 48 45 43 41 39 36 34 33 32 32 32 30 27 25 25 24 23 22 22 21 21 21 20 19 16 15 13 11 11 10 10 10 11 13 13 14 15 16 17 18 20 22 23 24
70 66 66 65 64 59 56 55 52 49 46 42 39 36 35 33 34 34 32 30 27 26 25 24 24 22 20 20 19 19 19 18 17 17 16 11 13 9 8 9 8 8 8 9 11 13 14 15 16 17 17 20 21 23
69 66 62 57 57 53 50 46 44 43 40 38 37 36 33 31 32 28 24 24 24 24 23 23 21 20 19 18 18 16 16 16 16 14 12 12 11 9 9 7 7 7 6 8 8 9 12 13 15 16 16 17 19 20
63 60 57 54 52 49 48 45 43 40 38 39 35 32 30 29 28 27 24 23 22 21 18 19 19 19 18 18 17 16 15 15 14 14 12 13 9 6 6 6 5 4 4 5 5 7 9 10 12 15 16 17 17 18